Overview Statistics Trail Chart Weather Telemetry Raw packets
 

This is the latest recevied weather packets stored in our database for station/object KE8DDT-7. If no packets are shown the sender has not sent any weather packets the latest 10 day(s).

<< 1 2 3 4 5 6 >>
Time Temp. Humidity Pressure Rain* Wind** Luminosity Snow
1788452708 26.11° C 72% 1006.5 hPa 0 mm - 788 W/m² -
1788452408 26.11° C 75% 1006.8 hPa 0 mm - 733 W/m² -
1788452108 25.56° C 76% 1006.9 hPa 0 mm - 631 W/m² -
1788451808 25.56° C 75% 1007.1 hPa 0 mm - 246 W/m² -
1788451508 25.56° C 76% 1007.1 hPa 0 mm - 290 W/m² -
1788451208 25.56° C 77% 1007.2 hPa 0 mm - 214 W/m² -
1788450908 25.56° C 79% 1007.3 hPa 0 mm - 214 W/m² -
1788450608 25° C 80% 1007.2 hPa 0 mm - 566 W/m² -
1788450008 23.89° C 84% 1006.9 hPa 0 mm - 687 W/m² -
1788449708 23.89° C 85% 1006.9 hPa 0 mm - 663 W/m² -
1788449108 23.33° C 85% 1007 hPa 0 mm - 111 W/m² -
1788448808 23.33° C 85% 1007.3 hPa 0 mm - 97 W/m² -
1788448508 23.33° C 85% 1007.8 hPa 0 mm - 69 W/m² -
1788447908 23.33° C 83% 1007.9 hPa 0 mm - 70 W/m² -
1788447608 23.89° C 83% 1007.2 hPa 0 mm - 62 W/m² -
1788447308 23.89° C 82% 1006.8 hPa 0 mm - 53 W/m² -
1788447008 23.89° C 82% 1006.5 hPa 0 mm - 53 W/m² -
1788446708 23.89° C 81% 1006.3 hPa 0 mm - 47 W/m² -
1788446409 23.89° C 81% 1006.3 hPa 0 mm - 49 W/m² -
1788445808 23.89° C 81% 1006.7 hPa 0 mm - 21 W/m² -
1788445508 23.89° C 81% 1006.9 hPa 0 mm - 14 W/m² -
1788445208 24.44° C 81% 1007.5 hPa 0 mm - 11 W/m² -
1788444608 25.56° C 85% 1007.6 hPa 0 mm - 5 W/m² -
1788444008 25.56° C 85% 1006.7 hPa 0 mm - 16 W/m² -
1788443708 26.11° C 84% 1006.8 hPa 0 mm - 18 W/m² -

* Rain latest hour (hover to see other rain measurements)
** Current wind speed in m/s (hover to see current wind gust speed)